{"data":{"norad_id":28485,"epoch":"2026-05-24T22:52:59.445120Z","epoch_age_seconds":69177,"freshness":"FRESH","line1":"1 28485U 04047A   26144.95346580  .00047623  00000+0  43751-3 0  9993","line2":"2 28485  20.5544   3.7991 0003242 356.7895   3.2530 15.65860646183217","mean_motion":15.65860646,"eccentricity":0.0003242,"inclination_deg":20.5544,"raan_deg":3.7991,"arg_perigee_deg":356.7895,"mean_anomaly_deg":3.253,"bstar":0.00043751,"rev_number":18321,"period_min":91.962206450394,"perigee_km":368.57669393944,"apogee_km":372.95268179385,"semimajor_km":6748.9016878666,"source":"CELESTRAK","updated_at":"2026-05-25T13:38:24.638479Z"}}